Time,TemperatureF,DewpointF,PressureIn,WindDirection,WindDirectionDegrees,WindSpeedMPH,WindSpeedGustMPH,Humidity,HourlyPrecipIn,Conditions,Clouds,dailyrainin,SoftwareType,DateUTC
2013-02-11 00:14:00,70.3,57.5,30.20,South,180,1.7,-999.0,64,-99.99,,,0.00,Acu-Link.com,2013-02-11 05:14:00,
2013-02-11 00:29:00,70.0,57.7,30.20,South,180,1.7,-999.0,65,-99.99,,,0.00,Acu-Link.com,2013-02-11 05:29:00,
2013-02-11 00:44:00,70.0,58.1,30.20,SW,225,2.7,-999.0,66,-99.99,,,0.00,Acu-Link.com,2013-02-11 05:44:00,
2013-02-11 01:00:00,69.6,57.7,30.20,SW,225,1.7,-999.0,66,-99.99,,,0.00,Acu-Link.com,2013-02-11 06:00:00,
2013-02-11 01:15:00,69.1,57.7,30.19,SSE,157,1.7,-999.0,67,-99.99,,,0.00,Acu-Link.com,2013-02-11 06:15:00,
2013-02-11 01:30:00,68.5,57.5,30.19,SW,225,0.0,-999.0,68,-99.99,,,0.00,Acu-Link.com,2013-02-11 06:30:00,
2013-02-11 01:45:00,67.8,57.3,30.19,SW,225,0.0,-999.0,69,-99.99,,,0.00,Acu-Link.com,2013-02-11 06:45:00,
2013-02-11 02:00:00,67.3,57.2,30.19,SSW,202,0.0,-999.0,70,-99.99,,,0.00,Acu-Link.com,2013-02-11 07:00:00,
2013-02-11 02:15:00,66.7,57.0,30.18,SW,225,0.0,-999.0,71,-99.99,,,0.00,Acu-Link.com,2013-02-11 07:15:00,
2013-02-11 02:30:00,66.4,57.1,30.19,South,180,0.0,-999.0,72,-99.99,,,0.00,Acu-Link.com,2013-02-11 07:30:00,
2013-02-11 02:45:00,65.7,57.6,30.18,WSW,247,0.0,-999.0,75,-99.99,,,0.00,Acu-Link.com,2013-02-11 07:45:00,
2013-02-11 03:00:00,65.3,57.5,30.18,South,180,0.0,-999.0,76,-99.99,,,0.00,Acu-Link.com,2013-02-11 08:00:00,
2013-02-11 03:16:00,64.6,57.2,30.18,SSW,202,0.0,-999.0,77,-99.99,,,0.00,Acu-Link.com,2013-02-11 08:16:00,
2013-02-11 03:31:00,64.0,57.4,30.19,ESE,112,0.0,-999.0,79,-99.99,,,0.00,Acu-Link.com,2013-02-11 08:31:00,
2013-02-11 03:46:00,63.3,57.0,30.18,ESE,112,0.0,-999.0,80,-99.99,,,0.00,Acu-Link.com,2013-02-11 08:46:00,
2013-02-11 04:01:00,63.0,57.1,30.18,ESE,112,0.0,-999.0,81,-99.99,,,0.00,Acu-Link.com,2013-02-11 09:01:00,
2013-02-11 04:16:00,63.0,57.1,30.18,ESE,112,0.0,-999.0,81,-99.99,,,0.00,Acu-Link.com,2013-02-11 09:16:00,
2013-02-11 04:32:00,62.2,56.6,30.18,ESE,112,0.0,-999.0,82,-99.99,,,0.00,Acu-Link.com,2013-02-11 09:32:00,
2013-02-11 04:47:00,61.9,56.3,30.17,ESE,112,0.0,-999.0,82,-99.99,,,0.00,Acu-Link.com,2013-02-11 09:47:00,
2013-02-11 05:02:00,62.1,56.9,30.17,SSW,202,0.0,-999.0,83,-99.99,,,0.00,Acu-Link.com,2013-02-11 10:02:00,
2013-02-11 05:17:00,63.1,57.5,30.18,SSE,157,0.0,-999.0,82,-99.99,,,0.00,Acu-Link.com,2013-02-11 10:17:00,
2013-02-11 05:32:00,64.4,57.7,30.17,SSE,157,1.7,-999.0,79,-99.99,,,0.00,Acu-Link.com,2013-02-11 10:32:00,
2013-02-11 05:48:00,64.6,57.9,30.18,SSE,157,0.0,-999.0,79,-99.99,,,0.00,Acu-Link.com,2013-02-11 10:48:00,
2013-02-11 06:03:00,64.0,57.0,30.18,South,180,0.0,-999.0,78,-99.99,,,0.00,Acu-Link.com,2013-02-11 11:03:00,
2013-02-11 06:18:00,63.7,57.4,30.19,SW,225,0.0,-999.0,80,-99.99,,,0.00,Acu-Link.com,2013-02-11 11:18:00,
2013-02-11 06:33:00,63.0,57.4,30.20,SW,225,0.0,-999.0,82,-99.99,,,0.00,Acu-Link.com,2013-02-11 11:33:00,
2013-02-11 06:48:00,62.4,56.8,30.20,SW,225,0.0,-999.0,82,-99.99,,,0.00,Acu-Link.com,2013-02-11 11:48:00,
2013-02-11 07:03:00,62.1,56.9,30.20,SW,225,0.0,-999.0,83,-99.99,,,0.00,Acu-Link.com,2013-02-11 12:03:00,
2013-02-11 07:18:00,62.2,57.3,30.21,SW,225,0.0,-999.0,84,-99.99,,,0.00,Acu-Link.com,2013-02-11 12:18:00,
2013-02-11 07:33:00,63.0,58.1,30.22,SW,225,0.0,-999.0,84,-99.99,,,0.00,Acu-Link.com,2013-02-11 12:33:00,
2013-02-11 07:48:00,66.4,60.0,30.22,SW,225,0.0,-999.0,80,-99.99,,,0.00,Acu-Link.com,2013-02-11 12:48:00,
2013-02-11 08:04:00,69.4,61.5,30.23,South,180,0.0,-999.0,76,-99.99,,,0.00,Acu-Link.com,2013-02-11 13:04:00,
2013-02-11 08:19:00,71.4,61.5,30.23,SSW,202,0.0,-999.0,71,-99.99,,,0.00,Acu-Link.com,2013-02-11 13:19:00,
2013-02-11 08:34:00,72.5,60.9,30.22,SSE,157,5.3,-999.0,67,-99.99,,,0.00,Acu-Link.com,2013-02-11 13:34:00,
2013-02-11 08:49:00,73.4,59.1,30.23,SSW,202,5.3,-999.0,61,-99.99,,,0.00,Acu-Link.com,2013-02-11 13:49:00,
2013-02-11 09:04:00,73.9,59.1,30.22,ESE,112,6.8,-999.0,60,-99.99,,,0.00,Acu-Link.com,2013-02-11 14:04:00,
2013-02-11 09:19:00,74.3,59.0,30.22,ESE,112,8.3,-999.0,59,-99.99,,,0.00,Acu-Link.com,2013-02-11 14:19:00,
2013-02-11 09:34:00,74.7,59.4,30.23,West,270,8.3,-999.0,59,-99.99,,,0.00,Acu-Link.com,2013-02-11 14:34:00,
2013-02-11 09:49:00,75.4,60.1,30.23,WSW,247,2.2,-999.0,59,-99.99,,,0.00,Acu-Link.com,2013-02-11 14:49:00,
2013-02-11 10:04:00,75.6,59.3,30.23,South,180,7.8,-999.0,57,-99.99,,,0.00,Acu-Link.com,2013-02-11 15:04:00,
2013-02-11 10:20:00,74.3,59.0,30.23,ENE,67,5.8,-999.0,59,-99.99,,,0.00,Acu-Link.com,2013-02-11 15:20:00,
2013-02-11 10:35:00,75.9,60.0,30.24,SW,225,4.2,-999.0,58,-99.99,,,0.00,Acu-Link.com,2013-02-11 15:35:00,
2013-02-11 10:50:00,74.8,59.5,30.23,East,90,6.3,-999.0,59,-99.99,,,0.00,Acu-Link.com,2013-02-11 15:50:00,
2013-02-11 11:05:00,76.1,60.2,30.23,NW,315,5.8,-999.0,58,-99.99,,,0.00,Acu-Link.com,2013-02-11 16:05:00,
2013-02-11 11:20:00,76.6,60.7,30.23,ESE,112,7.3,-999.0,58,-99.99,,,0.00,Acu-Link.com,2013-02-11 16:20:00,
2013-02-11 11:35:00,77.2,60.3,30.22,East,90,4.7,-999.0,56,-99.99,,,0.00,Acu-Link.com,2013-02-11 16:35:00,
2013-02-11 11:50:00,76.5,61.1,30.22,SSE,157,3.7,-999.0,59,-99.99,,,0.00,Acu-Link.com,2013-02-11 16:50:00,
2013-02-11 12:05:00,76.5,61.1,30.21,NNE,22,6.8,-999.0,59,-99.99,,,0.00,Acu-Link.com,2013-02-11 17:05:00,
2013-02-11 12:20:00,76.3,60.9,30.21,West,270,6.8,-999.0,59,-99.99,,,0.00,Acu-Link.com,2013-02-11 17:20:00,
2013-02-11 12:36:00,75.9,60.5,30.20,SSW,202,6.3,-999.0,59,-99.99,,,0.00,Acu-Link.com,2013-02-11 17:36:00,
2013-02-11 12:51:00,76.3,60.9,30.19,East,90,2.7,-999.0,59,-99.99,,,0.00,Acu-Link.com,2013-02-11 17:51:00,
2013-02-11 13:06:00,76.3,60.9,30.18,East,90,6.3,-999.0,59,-99.99,,,0.00,Acu-Link.com,2013-02-11 18:06:00,
2013-02-11 13:21:00,77.2,61.3,30.17,SE,135,8.3,-999.0,58,-99.99,,,0.00,Acu-Link.com,2013-02-11 18:21:00,
2013-02-11 13:36:00,76.3,60.9,30.18,NE,45,8.3,-999.0,59,-99.99,,,0.00,Acu-Link.com,2013-02-11 18:36:00,
2013-02-11 13:51:00,77.5,61.5,30.17,NE,45,7.3,-999.0,58,-99.99,,,0.00,Acu-Link.com,2013-02-11 18:51:00,
2013-02-11 14:06:00,76.8,60.9,30.16,East,90,5.3,-999.0,58,-99.99,,,0.00,Acu-Link.com,2013-02-11 19:06:00,
2013-02-11 14:21:00,76.5,61.1,30.15,SE,135,9.4,-999.0,59,-99.99,,,0.00,Acu-Link.com,2013-02-11 19:21:00,
2013-02-11 14:36:00,77.2,61.7,30.15,South,180,4.2,-999.0,59,-99.99,,,0.00,Acu-Link.com,2013-02-11 19:36:00,
2013-02-11 14:52:00,76.1,60.7,30.15,ESE,112,3.2,-999.0,59,-99.99,,,0.00,Acu-Link.com,2013-02-11 19:52:00,
2013-02-11 15:07:00,76.1,61.2,30.14,South,180,5.3,-999.0,60,-99.99,,,0.00,Acu-Link.com,2013-02-11 20:07:00,
2013-02-11 15:22:00,76.5,60.1,30.14,SW,225,8.3,-999.0,57,-99.99,,,0.00,Acu-Link.com,2013-02-11 20:22:00,
2013-02-11 15:37:00,76.6,60.7,30.14,SE,135,7.3,-999.0,58,-99.99,,,0.00,Acu-Link.com,2013-02-11 20:37:00,
2013-02-11 15:52:00,76.1,60.7,30.13,South,180,4.2,-999.0,59,-99.99,,,0.00,Acu-Link.com,2013-02-11 20:52:00,
2013-02-11 16:07:00,75.9,60.5,30.13,SE,135,9.4,-999.0,59,-99.99,,,0.00,Acu-Link.com,2013-02-11 21:07:00,
2013-02-11 16:22:00,75.6,60.7,30.13,South,180,10.4,-999.0,60,-99.99,,,0.00,Acu-Link.com,2013-02-11 21:22:00,
2013-02-11 16:37:00,75.6,60.7,30.13,East,90,7.8,-999.0,60,-99.99,,,0.00,Acu-Link.com,2013-02-11 21:37:00,
2013-02-11 16:52:00,75.2,60.8,30.13,ESE,112,7.8,-999.0,61,-99.99,,,0.00,Acu-Link.com,2013-02-11 21:52:00,
2013-02-11 17:08:00,74.8,60.0,30.13,SSE,157,5.3,-999.0,60,-99.99,,,0.00,Acu-Link.com,2013-02-11 22:08:00,
2013-02-11 17:23:00,74.1,60.2,30.12,NE,45,6.3,-999.0,62,-99.99,,,0.00,Acu-Link.com,2013-02-11 22:23:00,
2013-02-11 17:38:00,73.8,60.0,30.12,SE,135,3.7,-999.0,62,-99.99,,,0.00,Acu-Link.com,2013-02-11 22:38:00,
2013-02-11 17:53:00,73.2,59.8,30.12,South,180,9.4,-999.0,63,-99.99,,,0.00,Acu-Link.com,2013-02-11 22:53:00,
2013-02-11 18:08:00,72.7,59.8,30.12,SSE,157,4.7,-999.0,64,-99.99,,,0.00,Acu-Link.com,2013-02-11 23:08:00,
2013-02-11 18:23:00,72.3,59.9,30.12,NE,45,6.3,-999.0,65,-99.99,,,0.00,Acu-Link.com,2013-02-11 23:23:00,
2013-02-11 18:38:00,72.0,60.0,30.12,SSW,202,5.3,-999.0,66,-99.99,,,0.00,Acu-Link.com,2013-02-11 23:38:00,
2013-02-11 18:54:00,71.8,59.8,30.13,SE,135,2.2,-999.0,66,-99.99,,,0.00,Acu-Link.com,2013-02-11 23:54:00,
2013-02-11 19:09:00,71.6,60.0,30.13,SSE,157,2.2,-999.0,67,-99.99,,,0.00,Acu-Link.com,2013-02-12 00:09:00,
2013-02-11 19:24:00,71.2,59.7,30.13,SE,135,1.1,-999.0,67,-99.99,,,0.00,Acu-Link.com,2013-02-12 00:24:00,
2013-02-11 19:39:00,70.7,59.6,30.13,ESE,112,2.7,-999.0,68,-99.99,,,0.00,Acu-Link.com,2013-02-12 00:39:00,
2013-02-11 19:54:00,70.5,59.8,30.13,South,180,1.7,-999.0,69,-99.99,,,0.00,Acu-Link.com,2013-02-12 00:54:00,
2013-02-11 20:09:00,70.2,59.5,30.14,NE,45,0.0,-999.0,69,-99.99,,,0.00,Acu-Link.com,2013-02-12 01:09:00,
2013-02-11 20:24:00,69.8,59.6,30.15,SSE,157,0.0,-999.0,70,-99.99,,,0.00,Acu-Link.com,2013-02-12 01:24:00,
2013-02-11 20:39:00,69.4,59.6,30.14,SE,135,0.0,-999.0,71,-99.99,,,0.00,Acu-Link.com,2013-02-12 01:39:00,
2013-02-11 20:54:00,69.1,59.7,30.15,East,90,0.0,-999.0,72,-99.99,,,0.00,Acu-Link.com,2013-02-12 01:54:00,
2013-02-11 21:10:00,68.5,59.9,30.15,SE,135,0.0,-999.0,74,-99.99,,,0.00,Acu-Link.com,2013-02-12 02:10:00,
2013-02-11 21:25:00,68.5,59.9,30.14,ESE,112,0.0,-999.0,74,-99.99,,,0.00,Acu-Link.com,2013-02-12 02:25:00,
2013-02-11 21:40:00,67.8,59.6,30.15,ESE,112,0.0,-999.0,75,-99.99,,,0.00,Acu-Link.com,2013-02-12 02:40:00,
2013-02-11 21:55:00,67.1,59.6,30.14,ESE,112,0.0,-999.0,77,-99.99,,,0.00,Acu-Link.com,2013-02-12 02:55:00,
2013-02-11 22:10:00,66.6,59.9,30.14,ESE,112,0.0,-999.0,79,-99.99,,,0.00,Acu-Link.com,2013-02-12 03:10:00,
2013-02-11 22:26:00,66.0,58.9,30.14,ESE,112,0.0,-999.0,78,-99.99,,,0.00,Acu-Link.com,2013-02-12 03:26:00,
2013-02-11 22:41:00,66.0,60.0,30.14,ESE,112,0.0,-999.0,81,-99.99,,,0.00,Acu-Link.com,2013-02-12 03:41:00,
2013-02-11 22:56:00,65.5,59.5,30.14,ESE,112,0.0,-999.0,81,-99.99,,,0.00,Acu-Link.com,2013-02-12 03:56:00,
2013-02-11 23:11:00,65.1,59.5,30.13,SSW,202,0.0,-999.0,82,-99.99,,,0.00,Acu-Link.com,2013-02-12 04:11:00,
2013-02-11 23:26:00,64.8,59.2,30.14,SSW,202,0.0,-999.0,82,-99.99,,,0.00,Acu-Link.com,2013-02-12 04:26:00,
2013-02-11 23:41:00,64.6,59.0,30.13,SSW,202,0.0,-999.0,82,-99.99,,,0.00,Acu-Link.com,2013-02-12 04:41:00,
2013-02-11 23:56:00,64.6,59.7,30.13,SSW,202,0.0,-999.0,84,-99.99,,,0.00,Acu-Link.com,2013-02-12 04:56:00,